KG4EXY-1 Weather Reports


Display with metric or nautical units.
time (UTC)temp
F
wind
direction
speed
MPH
gust
MPH
rain 1hr
in
rain 24hr
in
rain mn
in
humidity
%
barometer
mb
20260507130150 0 0.0 0.0 0.00 0.29 0.09
20260507125150 0 0.0 0.0 0.00 0.31 0.09
20260507121150 0 0.0 0.0 0.00 0.32 0.09
20260507120150 0 0.0 0.0 0.00 0.34 0.09
20260507113149 0 0.0 0.0 0.00 0.36 0.09
20260507104148 0 0.0 0.0 0.00 0.36 0.09
20260507095148 0 0.0 0.0 0.00 0.36 0.09
20260507090148 0 0.0 0.0 0.00 0.36 0.09
20260507081148 0 0.0 0.0 0.00 0.36 0.09
20260507072144 0 0.0 0.0 0.00 0.36 0.09
20260507063144 0 0.0 0.0 0.00 0.36 0.09
20260507061142 0 0.0 0.0 0.01 0.36 0.09
20260507053142 0 0.0 0.0 0.02 0.36 0.09
20260507052142 0 0.0 0.0 0.01 0.35 0.08
20260507051142 0 0.0 0.0 0.08 0.35 0.08
20260507042142 0 0.0 0.0 0.07 0.34 0.07
20260507040142 0 0.0 0.0 0.00 0.27 0.00
20260507035142 0 0.0 0.0 0.00 0.27 0.27
20260507030141 0 0.0 0.0 0.00 0.27 0.27
20260507021141 0 0.0 0.0 0.00 0.27 0.27
20260507012140 0 0.0 0.0 0.00 0.27 0.27
20260507003139 0 0.0 0.0 0.00 0.27 0.27
20260506234138 0 0.0 0.0 0.00 0.27 0.27
20260506225138 0 0.0 0.0 0.00 0.27 0.27
20260506220136 0 0.0 0.0 0.00 0.27 0.27
20260506211136 0 0.0 0.0 0.00 0.27 0.27
20260506202134 0 0.0 0.0 0.00 0.27 0.27
20260506193134 0 0.0 0.0 0.00 0.27 0.27
20260506184132 0 0.0 0.0 0.00 0.27 0.27
20260506175132 0 0.0 0.0 0.00 0.27 0.27
20260506170132 0 0.0 0.0 0.00 0.27 0.27
20260506161132 0 0.0 0.0 0.00 0.27 0.27
20260506155132 0 0.0 0.0 0.01 0.27 0.27
20260506154132 0 0.0 0.0 0.03 0.27 0.27
20260506153132 0 0.0 0.0 0.04 0.27 0.27
20260506151132 0 0.0 0.0 0.05 0.27 0.27
20260506145131 0 0.0 0.0 0.05 0.26 0.26
20260506144130 0 0.0 0.0 0.05 0.24 0.24
20260506143129 0 0.0 0.0 0.06 0.23 0.23
20260506142129 0 0.0 0.0 0.09 0.22 0.22
20260506141129 0 0.0 0.0 0.12 0.22 0.22
20260506140129 0 0.0 0.0 0.14 0.21 0.21
20260506135128 0 0.0 0.0 0.16 0.21 0.21
20260506134128 0 0.0 0.0 0.15 0.19 0.19
20260506133128 0 0.0 0.0 0.13 0.17 0.17
20260506132128 0 0.0 0.0 0.09 0.13 0.13
20260506131128 0 0.0 0.0 0.06 0.10 0.10